Location: Boiro
(42.6475°N, 8.8834°W)
Time: 18:48:28
(UTC+01:00)

Transit 2A - Pass Details

Date: 01 December 2021
Orbit: 591 x 967 km, 66.7° (Epoch: 20 January)

Event Time Altitude Azimuth Distance (km) Brightness Sun altitude
Rises 11:45:16 0° 324° (NW) 3,662 8.9 21.5°
Reaches altitude 10° 11:47:57 10° 320° (NW) 2,710 8.4 21.7°
Maximum altitude 11:54:03 49° 247° (WSW) 1,202 7.3 22.2°
Drops below altitude 10° 11:59:52 10° 174° (S) 2,577 10.4 22.6°
Sets 12:02:21 0° 169° (S) 3,466 10.8 22.7°
